Rechercher aéroport 
image banner adimage banner ad
image banner ad

DABC - Constantine / Mohamed Boudiaf

Situé à Constantine, Algeria

ICAO - DABC, IATA - CZL

Données fournies par Airmate  

Information générale

Coordonnées: N36°17'7" E6°37'9"
Élévation : 2316 feet MSL.
 
Voir autres Aéroports à Constantine Province

Données opérationnelles

Accessible au public
Heure actuelle UTC:
Heure actuelle locale:
Météo
METAR: DABC 042000Z 24005KT 200V270 9999 FEW033 SCT200 10/04 Q1003
TAF: TAF DABC 041700Z 0418/0518 20008KT 9999 FEW030 SCT200 BECMG 0506/0509 20018KT TEMPO 0509/0518 FEW023TCU PROB40 TEMPO 0512/0518 5000 -TSRA FEW020CB BKN030
Voir NOTAMs / SUP AIP / TFR affectant cet aéroport [VIEW]
Fréquences de communication: [VIEW]

Pistes:

Identifiant RWYQFULongueur (ft)Largeur (ft)SurfaceLDA (ft)
16159°9843148
34339°9843148
13136°7874148
31316°7874148

Coordonnées de l'aéroport

Adresse: Constantine Algeria

Vue satellite de DABC